DELTA 1 DEB, 10208

Orbit data source: Space-Track

DELTA 1 DEB, 10208 is space debris in LEO originally from a launch on Thu, 14 Jul 1977 UTC launched from the Air Force Eastern Test Range (AFETR). Debris objects in space refer to the collection of defunct objects orbiting the Earth. Examples of debris include non-operational satellites, rocket bodies, and fragments generated from explosions, collisions, or faulty payload assembly.

Loading next visibility...
Identifier
10208, 1977-065AM
Orbit
LEO
Country
Flag of USUS
Related business
Manufacturer
Unknown
Mission
Spacecraft
Bus & Motor
Unknown
Mass
Unknown
Launch date (UTC)
1977-07-14 (49 years ago)
Launch vehicle
Unknown
Launch site
Air Force Eastern Test Range (AFETR)
Object type
Payload
Rocket body
Debris
Shape & HBR
Unknown shape, 0.2 m
Radar Cross Section
Medium (>0.1 m² and <1 m²)

Expand to show TLE details & history
Last TLE update: 7 hours ago

TLE from 7 hours ago
0 DELTA 1 DEB
1 10208U 77065AM  26263.11064867  .00003145  00000-0  34966-3 0  9992
2 10208  28.9322 182.7847 0311526 162.4745 198.6865 14.55082583459511
Epoch: 2026-09-20T02:39Z
TLE epoch observation values (Epoch: 2026-09-20T02:39:20.045Z)
Latitude
0.00002°
Longitude
143.94168°
Altitude
917.212 km
Speed
7.286 km/s
True Right ascension
12h 11m 08s
True Declination
0° 00' 00"
Sunlit
Object was in daylight at epoch
Visualization orbit readout
Latitude
Unknown
Longitude
Unknown
Altitude
Unknown
Speed
Unknown
Apparent Right ascension
Unknown
Apparent Declination
Unknown
Sunlit
N/A
Visualization observer readout
Local Sidereal Time
02:40:29
Azimuth
Unknown
Elevation
Unknown
Doppler factor
Unknown
Orbital elements
Apogee altitude
934.053 km
Perigee altitude
492.229 km
Semi-major axis
7,091.278 km
Eccentricity
0.03115
Inclination
28.9322°
RAAN
182.7847°
Arg. of periapsis
162.4745°
True anomaly
197.58358°
Mean anomaly
198.6865°
Eccentric anomaly
198.13105°
Mean motion
3.6346 °/min
Orbital period
99.05 mins
BSTAR
0.00034966
Loading maneuver chart data...
Computing Atmospheric mass density...
Loading historical data...
Loading historical data...
Loading historical data...
Loading historical data...
Loading historical data...
Loading historical data...
Loading historical data...

Documentation

Showing up to 5 results
|